星链-35645(STARLINK-35645)

导读

STARLINK-35645是由美国于2025年10月22日发射的星链系列卫星,隶属于太空探索技术公司打造的星链卫星互联网星座。星链项目旨在为全球提供高速低延迟互联网覆盖,该卫星入轨后,将进一步扩充星座组网规模,提升全球尤其是偏远地区的网络服务能力,助力星链网络服务覆盖范围与稳定性升级。

Basic Information
目录编号:
66124
目录名称:
STARLINK-35645
国际标识:
2025-237L
轨道中心:
EARTH
卫星名称:
星链-35645
卫星全名:
星链-35645(STARLINK-35645)
卫星状态:
在轨 (已飞行317 天)
发射日期:
2025-10-22 UTC
国别 :
美国 (US)
星等 :
--
Orbit Information
数据来源 国际轨道数据
星历时间: 2026-09-04T10:22:50+0800
7小时前
查看轨道信息
半长轴: 6840.857km
偏心率: 0.0001759
轨道倾角: 53.159°
近地点辐角 51.934°
升交点赤经 288.250°
平近点角 308.182°
近地点: 461.516km
远地点: 463.924km
周期: 93.848分钟
每日圈数: 15.343944
Detailed Information
固有亮度:
5
最大亮度:
2.5
卫星平台:
Starlink V1.0
覆盖范围:
全球
运营商:
太空探索技术公司
运营商所在国:
美国
制造商(研发单位):
太空探索技术公司
制造商所在国:
美国
使用方式:
暂无
Satellite Introduction
Starlink 计划是 SpaceX 推出的全球卫星互联网项目,通过发射低轨道卫星,为全球尤其是偏远地区提供高速、低延迟的互联网服务。自 2019 年起,Starlink 已部署数千颗卫星,旨在缩小全球数字鸿沟,推动互联网普及。该项目还为军事、航空等行业提供通信支持,带来广泛经济效益。
2D Orbit Map
3D Orbit Map
Orbit Altitude Analysis Chart
Orbit Inclination Analysis Chart
Orbit Comprehensive Analysis Chart
View Comprehensive Chart
Conjunction Data List
Event ID Objects TCA Miss Dist (km) Collision Risk Probability Collision Risk Index (CRI) Action
CDM_260906-071506-447806-612421
2026-09-06T
07:15:05+0000
1.039 km
极远距离
1.495449E-5 中风险 0.58
CDM_260906-054106-447806-612421
2026-09-06T
05:41:18+0000
1.150 km
极远距离
1.050932E-5 中风险 0.55
CDM_260906-203206-447806-612421
2026-09-06T
20:32:18+0000
2.734 km
极远距离
1.04013E-6 低风险 0.35
CDM_260905-043305-187406-612421
2026-09-05T
04:33:11+0000
2.585 km
极远距离
3.97853E-7 极低风险 0.27